| time (UTC) | temp F | wind direction | speed MPH | gust MPH | rain 1hr in | rain 24hr in | rain mn in | humidity % | barometer mb |
| 20260506215015 | 75 | 5 | 1.0 | 10.0 | 0.00 | 0.02 | 0.02 | 70 | 1010.0 |
| 20260506214015 | 76 | 360 | 1.0 | 9.0 | 0.00 | 0.02 | 0.02 | 70 | 1010.0 |
| 20260506213015 | 76 | 0 | 2.0 | 10.0 | 0.00 | 0.02 | 0.02 | 69 | 1010.0 |
| 20260506212015 | 77 | 3 | 3.0 | 10.0 | 0.00 | 0.02 | 0.02 | 70 | 1009.9 |
| 20260506211015 | 76 | 360 | 0.0 | 9.0 | 0.00 | 0.02 | 0.02 | 73 | 1009.9 |
| 20260506210015 | 76 | 358 | 2.0 | 10.0 | 0.00 | 0.02 | 0.02 | 73 | 1010.1 |
| 20260506205016 | 77 | 30 | 1.0 | 9.0 | 0.00 | 0.02 | 0.02 | 73 | 1010.0 |
| 20260506204015 | 78 | 360 | 1.0 | 8.0 | 0.00 | 0.02 | 0.02 | 73 | 1010.0 |
| 20260506203015 | 79 | 20 | 1.0 | 8.0 | 0.00 | 0.02 | 0.02 | 71 | 1010.1 |
| 20260506202015 | 80 | 360 | 1.0 | 7.0 | 0.00 | 0.02 | 0.02 | 71 | 1010.1 |
| 20260506201015 | 80 | 102 | 4.0 | 8.0 | 0.00 | 0.02 | 0.02 | 70 | 1010.2 |
| 20260506200016 | 80 | 67 | 1.0 | 9.0 | 0.00 | 0.02 | 0.02 | 69 | 1010.1 |
| 20260506195015 | 80 | 7 | 1.0 | 7.0 | 0.00 | 0.02 | 0.02 | 71 | 1010.1 |
| 20260506194015 | 79 | 360 | 0.0 | 0.0 | 0.00 | 0.02 | 0.02 | 71 | 1010.0 |
| 20260506193015 | 79 | 360 | 0.0 | 7.0 | 0.00 | 0.02 | 0.02 | 72 | 1010.1 |
| 20260506192035 | 79 | 360 | 0.0 | 0.0 | 0.00 | 0.02 | 0.02 | 71 | 1010.4 |
| 20260506191015 | 80 | 0 | 0.0 | 1.0 | 0.00 | 0.02 | 0.02 | 71 | 1010.4 |
| 20260506190015 | 79 | 11 | 1.0 | 10.0 | 0.00 | 0.02 | 0.02 | 73 | 1010.4 |
| 20260506185016 | 78 | 360 | 0.0 | 9.0 | 0.01 | 0.02 | 0.02 | 74 | 1010.6 |
| 20260506184035 | 78 | 360 | 0.0 | 1.0 | 0.01 | 0.02 | 0.02 | 76 | 1010.6 |
| 20260506183016 | 78 | 23 | 1.0 | 9.0 | 0.01 | 0.02 | 0.02 | 76 | 1010.8 |
| 20260506182015 | 77 | 12 | 0.0 | 4.0 | 0.01 | 0.02 | 0.02 | 76 | 1010.6 |
| 20260506181015 | 77 | 75 | 1.0 | 7.0 | 0.01 | 0.02 | 0.02 | 78 | 1010.7 |
| 20260506180015 | 77 | 0.0 | 0.0 | 0.01 | 0.02 | 0.02 | 76 | 1010.9 | |
| 20260506175015 | 77 | 0.0 | 0.0 | 0.00 | 0.01 | 0.01 | 79 | 1010.9 | |
| 20260506174016 | 77 | 0.0 | 0.0 | 0.00 | 0.01 | 0.01 | 78 | 1011.1 | |
| 20260506173015 | 78 | 75 | 1.0 | 9.0 | 0.00 | 0.01 | 0.01 | 78 | 1011.1 |
| 20260506172035 | 78 | 3 | 1.0 | 10.0 | 0.00 | 0.01 | 0.01 | 77 | 1011.2 |
| 20260506171015 | 77 | 23 | 1.0 | 8.0 | 0.00 | 0.01 | 0.01 | 80 | 1011.2 |
| 20260506170016 | 76 | 76 | 1.0 | 9.0 | 0.00 | 0.01 | 0.01 | 86 | 1011.2 |
| 20260506165015 | 75 | 12 | 2.0 | 7.0 | 0.00 | 0.01 | 0.01 | 89 | 1011.3 |
| 20260506164015 | 74 | 12 | 3.0 | 9.0 | 0.00 | 0.01 | 0.01 | 91 | 1011.4 |
| 20260506163035 | 74 | 10 | 3.0 | 7.0 | 0.00 | 0.01 | 0.01 | 92 | 1011.5 |
| 20260506162035 | 74 | 11 | 3.0 | 7.0 | 0.00 | 0.01 | 0.01 | 93 | 1011.6 |
| 20260506161015 | 73 | 10 | 2.0 | 6.0 | 0.00 | 0.01 | 0.01 | 94 | 1011.6 |
| 20260506160015 | 73 | 10 | 3.0 | 6.0 | 0.00 | 0.01 | 0.01 | 94 | 1011.5 |
| 20260506155015 | 73 | 10 | 2.0 | 4.0 | 0.01 | 0.01 | 0.01 | 94 | 1011.3 |
| 20260506154016 | 73 | 11 | 1.0 | 3.0 | 0.01 | 0.01 | 0.01 | 94 | 1011.1 |
| 20260506153015 | 73 | 12 | 1.0 | 3.0 | 0.01 | 0.01 | 0.01 | 94 | 1010.8 |
| 20260506152016 | 73 | 13 | 0.0 | 2.0 | 0.01 | 0.01 | 0.01 | 94 | 1010.5 |
| 20260506151015 | 72 | 11 | 0.0 | 2.0 | 0.01 | 0.01 | 0.01 | 93 | 1010.6 |
| 20260506150035 | 72 | 11 | 1.0 | 3.0 | 0.01 | 0.01 | 0.01 | 93 | 1010.4 |
| 20260506145035 | 72 | 11 | 1.0 | 4.0 | 0.00 | 0.00 | 0.00 | 92 | 1010.4 |
| 20260506144015 | 72 | 0.0 | 0.0 | 0.00 | 0.00 | 0.00 | 92 | 1010.4 | |
| 20260506143015 | 73 | 10 | 1.0 | 4.0 | 0.00 | 0.00 | 0.00 | 92 | 1010.4 |
| 20260506142015 | 73 | 11 | 1.0 | 4.0 | 0.00 | 0.00 | 0.00 | 92 | 1009.9 |
| 20260506141035 | 73 | 11 | 1.0 | 6.0 | 0.00 | 0.00 | 0.00 | 92 | 1009.7 |
| 20260506140015 | 73 | 9 | 3.0 | 7.0 | 0.00 | 0.00 | 0.00 | 92 | 1009.5 |
| 20260506135036 | 73 | 10 | 3.0 | 6.0 | 0.00 | 0.00 | 0.00 | 92 | 1009.3 |
| 20260506134056 | 72 | 10 | 4.0 | 7.0 | 0.00 | 0.00 | 0.00 | 92 | 1009.2 |
| 20260506133015 | 72 | 10 | 4.0 | 7.0 | 0.00 | 0.00 | 0.00 | 92 | 1009.1 |
| 20260506132015 | 72 | 10 | 4.0 | 8.0 | 0.00 | 0.00 | 0.00 | 92 | 1009.1 |
| 20260506131015 | 72 | 10 | 2.0 | 7.0 | 0.00 | 0.00 | 0.00 | 92 | 1009.1 |
| 20260506130015 | 72 | 10 | 3.0 | 6.0 | 0.00 | 0.00 | 0.00 | 92 | 1009.0 |
| 20260506125015 | 72 | 10 | 2.0 | 5.0 | 0.00 | 0.00 | 0.00 | 92 | 1009.0 |
| 20260506124015 | 72 | 9 | 2.0 | 5.0 | 0.00 | 0.00 | 0.00 | 92 | 1009.1 |
| 20260506123015 | 72 | 9 | 0.0 | 4.0 | 0.00 | 0.00 | 0.00 | 92 | 1009.1 |
| 20260506122015 | 72 | 12 | 0.0 | 2.0 | 0.00 | 0.00 | 0.00 | 92 | 1008.9 |
| 20260506121015 | 72 | 9 | 1.0 | 5.0 | 0.00 | 0.00 | 0.00 | 92 | 1008.8 |
| 20260506120015 | 72 | 9 | 2.0 | 5.0 | 0.00 | 0.00 | 0.00 | 92 | 1008.8 |
| 20260506115015 | 72 | 8 | 2.0 | 5.0 | 0.00 | 0.00 | 0.00 | 92 | 1008.7 |
| 20260506114015 | 72 | 8 | 2.0 | 6.0 | 0.00 | 0.00 | 0.00 | 92 | 1008.7 |
| 20260506113015 | 72 | 8 | 1.0 | 5.0 | 0.00 | 0.00 | 0.00 | 91 | 1008.6 |
| 20260506112015 | 72 | 8 | 1.0 | 4.0 | 0.00 | 0.00 | 0.00 | 91 | 1008.7 |
| 20260506111015 | 72 | 8 | 1.0 | 4.0 | 0.00 | 0.00 | 0.00 | 91 | 1008.7 |
| 20260506110015 | 72 | 8 | 1.0 | 4.0 | 0.00 | 0.00 | 0.00 | 91 | 1008.5 |
| 20260506105015 | 72 | 8 | 2.0 | 6.0 | 0.00 | 0.00 | 0.00 | 91 | 1008.6 |
| 20260506104015 | 72 | 8 | 1.0 | 3.0 | 0.00 | 0.00 | 0.00 | 91 | 1008.6 |
| 20260506103015 | 73 | 360 | 0.0 | 7.0 | 0.00 | 0.00 | 0.00 | 90 | 1008.6 |
| 20260506102016 | 73 | 360 | 0.0 | 8.0 | 0.00 | 0.00 | 0.00 | 90 | 1008.6 |
| 20260506101015 | 73 | 269 | 1.0 | 5.0 | 0.00 | 0.00 | 0.00 | 90 | 1008.5 |
| 20260506100015 | 73 | 358 | 1.0 | 9.0 | 0.00 | 0.00 | 0.00 | 90 | 1008.4 |
| 20260506095015 | 73 | 360 | 1.0 | 8.0 | 0.00 | 0.00 | 0.00 | 90 | 1008.4 |
| 20260506094015 | 73 | 357 | 1.0 | 9.0 | 0.00 | 0.00 | 0.00 | 89 | 1008.3 |
| 20260506093015 | 73 | 360 | 0.0 | 4.0 | 0.00 | 0.00 | 0.00 | 89 | 1008.2 |
| 20260506092015 | 73 | 358 | 1.0 | 9.0 | 0.00 | 0.00 | 0.00 | 89 | 1008.0 |
| 20260506091016 | 73 | 360 | 1.0 | 8.0 | 0.00 | 0.00 | 0.00 | 89 | 1008.1 |
| 20260506090056 | 73 | 4 | 1.0 | 8.0 | 0.00 | 0.00 | 0.00 | 88 | 1008.2 |
| 20260506085015 | 73 | 360 | 1.0 | 7.0 | 0.00 | 0.00 | 0.00 | 88 | 1008.3 |
| 20260506084015 | 73 | 7 | 1.0 | 9.0 | 0.00 | 0.00 | 0.00 | 88 | 1008.3 |
| 20260506083015 | 73 | 8 | 1.0 | 8.0 | 0.00 | 0.00 | 0.00 | 88 | 1008.3 |
| 20260506082036 | 73 | 360 | 0.0 | 8.0 | 0.00 | 0.00 | 0.00 | 88 | 1008.2 |
| 20260506081015 | 73 | 360 | 0.0 | 4.0 | 0.00 | 0.00 | 0.00 | 88 | 1008.2 |
| 20260506073015 | 73 | 360 | 0.0 | 2.0 | 0.00 | 0.00 | 0.00 | 87 | 1008.5 |
| 20260506072015 | 73 | 360 | 0.0 | 5.0 | 0.00 | 0.00 | 0.00 | 87 | 1008.6 |
| 20260506071016 | 73 | 7 | 0.0 | 7.0 | 0.00 | 0.00 | 0.00 | 88 | 1008.7 |
| 20260506062016 | 74 | 360 | 0.0 | 2.0 | 0.00 | 0.00 | 0.00 | 87 | 1009.1 |
| 20260506061015 | 74 | 360 | 0.0 | 2.0 | 0.00 | 0.00 | 0.00 | 87 | 1009.0 |
| 20260506051035 | 74 | 360 | 0.0 | 3.0 | 0.00 | 0.00 | 0.00 | 86 | 1008.8 |
| 20260506045015 | 74 | 360 | 0.0 | 9.0 | 0.00 | 0.00 | 0.00 | 85 | 1008.9 |
| 20260506044015 | 74 | 74 | 1.0 | 7.0 | 0.00 | 0.00 | 0.00 | 85 | 1009.0 |
| 20260506043015 | 74 | 360 | 0.0 | 8.0 | 0.00 | 0.00 | 0.00 | 85 | 1008.8 |
| 20260506042015 | 74 | 360 | 0.0 | 2.0 | 0.00 | 0.00 | 0.00 | 85 | 1008.9 |
| 20260506041015 | 74 | 360 | 0.0 | 7.0 | 0.00 | 0.00 | 0.00 | 85 | 1008.7 |
| 20260506040015 | 75 | 360 | 0.0 | 6.0 | 0.00 | 0.00 | 0.00 | 85 | 1008.6 |
| 20260506035016 | 75 | 360 | 0.0 | 7.0 | 0.00 | 0.00 | 0.00 | 84 | 1008.5 |
| 20260506034015 | 75 | 360 | 1.0 | 9.0 | 0.00 | 0.00 | 0.00 | 84 | 1008.3 |
| 20260506033015 | 75 | 360 | 0.0 | 9.0 | 0.00 | 0.00 | 0.00 | 83 | 1008.1 |
| 20260506032015 | 75 | 360 | 0.0 | 0.0 | 0.00 | 0.00 | 0.00 | 83 | 1008.1 |
| 20260506031015 | 75 | 360 | 0.0 | 0.0 | 0.00 | 0.00 | 0.00 | 82 | 1007.9 |
| 20260506030015 | 76 | 360 | 0.0 | 1.0 | 0.00 | 0.00 | 0.00 | 81 | 1007.8 |
| 20260506025015 | 76 | 0.0 | 0.0 | 0.00 | 0.00 | 0.00 | 81 | 1007.6 | |
| 20260506024015 | 76 | 360 | 0.0 | 4.0 | 0.00 | 0.00 | 0.00 | 80 | 1007.4 |
| 20260506023015 | 77 | 360 | 0.0 | 1.0 | 0.00 | 0.00 | 0.00 | 79 | 1007.2 |
| 20260506022015 | 77 | 360 | 0.0 | 9.0 | 0.00 | 0.00 | 0.00 | 78 | 1007.2 |
| 20260506021015 | 77 | 0.0 | 0.0 | 0.00 | 0.00 | 0.00 | 77 | 1007.1 | |
| 20260506020015 | 78 | 360 | 0.0 | 6.0 | 0.00 | 0.00 | 0.00 | 76 | 1006.9 |
| 20260506015015 | 78 | 360 | 0.0 | 2.0 | 0.00 | 0.00 | 0.00 | 75 | 1006.8 |
| 20260506014015 | 78 | 0.0 | 0.0 | 0.00 | 0.00 | 0.00 | 74 | 1006.7 | |
| 20260506013015 | 78 | 24 | 0.0 | 7.0 | 0.00 | 0.00 | 0.00 | 73 | 1006.7 |
| 20260506012015 | 79 | 77 | 1.0 | 4.0 | 0.00 | 0.00 | 0.00 | 73 | 1006.6 |
| 20260506011015 | 79 | 80 | 3.0 | 7.0 | 0.00 | 0.00 | 0.00 | 73 | 1006.5 |
| 20260506010015 | 79 | 85 | 2.0 | 4.0 | 0.00 | 0.00 | 0.00 | 72 | 1006.4 |
| 20260506005055 | 79 | 83 | 1.0 | 4.0 | 0.00 | 0.00 | 0.00 | 71 | 1006.4 |
| 20260506004015 | 80 | 76 | 1.0 | 6.0 | 0.00 | 0.00 | 0.00 | 71 | 1006.4 |
| 20260506003015 | 80 | 79 | 3.0 | 5.0 | 0.00 | 0.00 | 0.00 | 70 | 1006.2 |
| 20260506002035 | 80 | 78 | 2.0 | 6.0 | 0.00 | 0.00 | 0.00 | 69 | 1006.2 |
| 20260506001015 | 80 | 75 | 2.0 | 6.0 | 0.00 | 0.00 | 0.00 | 69 | 1006.1 |
| 20260506000035 | 80 | 360 | 0.0 | 0.0 | 0.00 | 0.00 | 0.00 | 69 | 1006.0 |
| 20260505235015 | 80 | 360 | 1.0 | 9.0 | 0.00 | 0.00 | 0.00 | 68 | 1005.9 |
| 20260505234015 | 80 | 20 | 0.0 | 8.0 | 0.00 | 0.00 | 0.00 | 69 | 1005.9 |
| 20260505233015 | 80 | 360 | 0.0 | 3.0 | 0.00 | 0.00 | 0.00 | 68 | 1005.8 |
| 20260505232015 | 80 | 0.0 | 0.0 | 0.00 | 0.00 | 0.00 | 68 | 1005.7 | |
| 20260505231015 | 80 | 360 | 0.0 | 7.0 | 0.00 | 0.00 | 0.00 | 67 | 1005.7 |
| 20260505230015 | 80 | 67 | 1.0 | 10.0 | 0.00 | 0.00 | 0.00 | 67 | 1005.7 |
| 20260505225015 | 80 | 15 | 0.0 | 6.0 | 0.00 | 0.00 | 0.00 | 67 | 1005.8 |
| 20260505224015 | 80 | 71 | 2.0 | 8.0 | 0.00 | 0.00 | 0.00 | 68 | 1005.9 |
| 20260505223015 | 80 | 0.0 | 0.0 | 0.00 | 0.00 | 0.00 | 67 | 1005.9 | |
| 20260505222015 | 81 | 75 | 1.0 | 7.0 | 0.00 | 0.00 | 0.00 | 67 | 1006.0 |
| 20260505221015 | 80 | 24 | 0.0 | 3.0 | 0.00 | 0.00 | 0.00 | 68 | 1006.0 |
| 20260505220015 | 80 | 360 | 0.0 | 4.0 | 0.00 | 0.00 | 0.00 | 68 | 1006.1 |